Time,TemperatureF,DewpointF,PressureIn,WindDirection,WindDirectionDegrees,WindSpeedMPH,WindSpeedGustMPH,Humidity,HourlyPrecipIn,Conditions,Clouds,dailyrainin,SoftwareType,DateUTC
2013-11-01 00:01:00,57.8,55.5,29.80,SSE,165,10.0,10.0,92,0.00,,,0.00,Wunderground v.1.15,2013-11-01 04:01:00,
2013-11-01 00:02:00,57.8,55.5,29.81,SSW,195,9.0,10.0,92,0.00,,,0.00,Wunderground v.1.15,2013-11-01 04:02:00,
2013-11-01 00:04:00,57.8,55.5,29.81,SW,219,8.0,10.0,92,0.00,,,0.00,Wunderground v.1.15,2013-11-01 04:04:00,
2013-11-01 00:05:00,57.8,55.5,29.81,SSW,204,8.0,10.0,92,0.00,,,0.00,Wunderground v.1.15,2013-11-01 04:05:00,
2013-11-01 00:07:00,57.8,55.5,29.81,SSW,197,8.0,10.0,92,0.00,,,0.00,Wunderground v.1.15,2013-11-01 04:07:00,
2013-11-01 00:08:00,57.8,55.5,29.82,South,187,7.0,10.0,92,0.00,,,0.00,Wunderground v.1.15,2013-11-01 04:08:00,
2013-11-01 00:13:00,57.9,55.3,29.81,SW,215,7.0,12.0,91,0.00,,,0.00,Wunderground v.1.15,2013-11-01 04:13:00,
2013-11-01 00:19:00,58.5,55.6,29.81,SSW,204,9.0,14.0,90,0.00,,,0.00,Wunderground v.1.15,2013-11-01 04:19:00,
2013-11-01 00:25:00,58.7,55.5,29.81,South,187,8.0,16.0,89,0.00,,,0.00,Wunderground v.1.15,2013-11-01 04:25:00,
2013-11-01 00:31:00,58.9,55.7,29.81,SSW,210,7.0,8.0,89,0.00,,,0.00,Wunderground v.1.15,2013-11-01 04:31:00,
2013-11-01 00:37:00,59.1,55.5,29.81,SSW,201,8.0,13.0,88,0.00,,,0.00,Wunderground v.1.15,2013-11-01 04:37:00,
2013-11-01 00:43:00,59.2,55.6,29.81,SSW,198,8.0,9.0,88,0.00,,,0.00,Wunderground v.1.15,2013-11-01 04:43:00,
2013-11-01 00:49:00,59.3,55.7,29.82,SW,215,8.0,17.0,88,0.00,,,0.00,Wunderground v.1.15,2013-11-01 04:49:00,
2013-11-01 00:54:00,59.3,55.7,29.82,SSW,204,7.0,16.0,88,0.00,,,0.00,Wunderground v.1.15,2013-11-01 04:54:00,
2013-11-01 01:00:00,59.2,55.6,29.81,SW,232,5.0,5.0,88,0.00,,,0.00,Wunderground v.1.15,2013-11-01 05:00:00,
2013-11-01 01:06:00,59.2,55.6,29.81,SSW,196,5.0,8.0,88,0.00,,,0.00,Wunderground v.1.15,2013-11-01 05:06:00,
2013-11-01 01:12:00,59.2,55.6,29.80,SW,227,6.0,8.0,88,0.00,,,0.00,Wunderground v.1.15,2013-11-01 05:12:00,
2013-11-01 01:18:00,59.4,55.5,29.80,East,100,6.0,8.0,87,0.00,,,0.00,Wunderground v.1.15,2013-11-01 05:18:00,
2013-11-01 01:23:00,59.5,55.6,29.80,SSW,208,5.0,6.0,87,0.00,,,0.00,Wunderground v.1.15,2013-11-01 05:23:00,
2013-11-01 01:29:00,59.4,55.5,29.81,SW,222,4.0,6.0,87,0.00,,,0.00,Wunderground v.1.15,2013-11-01 05:29:00,
2013-11-01 01:35:00,59.5,55.6,29.81,ESE,113,4.0,4.0,87,0.00,,,0.00,Wunderground v.1.15,2013-11-01 05:35:00,
2013-11-01 01:41:00,59.4,55.5,29.81,SW,227,3.0,5.0,87,0.00,,,0.00,Wunderground v.1.15,2013-11-01 05:41:00,
2013-11-01 01:47:00,59.4,55.5,29.81,SSW,203,3.0,7.0,87,0.00,,,0.00,Wunderground v.1.15,2013-11-01 05:47:00,
2013-11-01 01:53:00,59.4,55.5,29.81,East,84,3.0,11.0,87,0.00,,,0.00,Wunderground v.1.15,2013-11-01 05:53:00,
2013-11-01 01:59:00,59.5,55.6,29.80,SSW,210,4.0,11.0,87,0.00,,,0.00,Wunderground v.1.15,2013-11-01 05:59:00,
2013-11-01 02:04:00,59.5,55.6,29.79,SE,141,4.0,6.0,87,0.00,,,0.00,Wunderground v.1.15,2013-11-01 06:04:00,
2013-11-01 02:10:00,59.4,55.5,29.79,SSW,212,4.0,4.0,87,0.00,,,0.00,Wunderground v.1.15,2013-11-01 06:10:00,
2013-11-01 02:16:00,59.5,55.6,29.80,South,184,4.0,5.0,87,0.00,,,0.00,Wunderground v.1.15,2013-11-01 06:16:00,
2013-11-01 02:22:00,59.4,55.8,29.78,SW,223,4.0,7.0,88,0.00,,,0.00,Wunderground v.1.15,2013-11-01 06:22:00,
2013-11-01 02:27:00,59.2,56.0,29.78,South,184,4.0,7.0,89,0.00,,,0.00,Wunderground v.1.15,2013-11-01 06:27:00,
2013-11-01 02:33:00,58.9,56.0,29.78,East,92,5.0,7.0,90,0.00,,,0.00,Wunderground v.1.15,2013-11-01 06:33:00,
2013-11-01 02:39:00,58.8,55.9,29.78,SSW,207,5.0,7.0,90,0.00,,,0.00,Wunderground v.1.15,2013-11-01 06:39:00,
2013-11-01 02:45:00,58.7,55.8,29.78,SE,133,4.0,10.0,90,0.00,,,0.00,Wunderground v.1.15,2013-11-01 06:45:00,
2013-11-01 02:51:00,58.6,55.4,29.78,SSE,163,4.0,4.0,89,0.00,,,0.00,Wunderground v.1.15,2013-11-01 06:51:00,
2013-11-01 02:57:00,58.6,55.4,29.78,SSW,203,4.0,7.0,89,0.00,,,0.00,Wunderground v.1.15,2013-11-01 06:57:00,
2013-11-01 03:03:00,58.5,55.3,29.78,SSW,212,4.0,4.0,89,0.00,,,0.00,Wunderground v.1.15,2013-11-01 07:03:00,
2013-11-01 03:08:00,58.4,55.2,29.78,SSW,209,4.0,7.0,89,0.00,,,0.00,Wunderground v.1.15,2013-11-01 07:08:00,
2013-11-01 03:14:00,58.2,55.0,29.78,South,184,4.0,6.0,89,0.00,,,0.00,Wunderground v.1.15,2013-11-01 07:14:00,
2013-11-01 03:20:00,58.0,55.1,29.77,SW,214,4.0,5.0,90,0.00,,,0.00,Wunderground v.1.15,2013-11-01 07:20:00,
2013-11-01 03:26:00,57.8,55.2,29.78,SE,146,4.0,8.0,91,0.00,,,0.00,Wunderground v.1.15,2013-11-01 07:26:00,
2013-11-01 03:31:00,57.4,55.1,29.78,SW,222,4.0,5.0,92,0.00,,,0.00,Wunderground v.1.15,2013-11-01 07:31:00,
2013-11-01 03:37:00,57.0,55.0,29.78,SSW,207,4.0,5.0,93,0.00,,,0.00,Wunderground v.1.15,2013-11-01 07:37:00,
2013-11-01 03:43:00,56.7,55.0,29.78,SSW,203,4.0,7.0,94,0.00,,,0.00,Wunderground v.1.15,2013-11-01 07:43:00,
2013-11-01 03:49:00,56.4,55.0,29.78,SW,235,3.0,7.0,95,0.00,,,0.00,Wunderground v.1.15,2013-11-01 07:49:00,
2013-11-01 03:55:00,56.3,54.9,29.78,SSW,210,3.0,5.0,95,0.00,,,0.00,Wunderground v.1.15,2013-11-01 07:55:00,
2013-11-01 04:01:00,56.0,54.9,29.78,SSW,197,3.0,3.0,96,0.00,,,0.00,Wunderground v.1.15,2013-11-01 08:01:00,
2013-11-01 04:07:00,56.0,54.9,29.78,South,188,3.0,3.0,96,0.00,,,0.00,Wunderground v.1.15,2013-11-01 08:07:00,
2013-11-01 04:12:00,56.0,55.2,29.77,South,179,3.0,4.0,97,0.00,,,0.00,Wunderground v.1.15,2013-11-01 08:12:00,
2013-11-01 04:18:00,56.0,55.2,29.77,South,181,2.0,5.0,97,0.00,,,0.00,Wunderground v.1.15,2013-11-01 08:18:00,
2013-11-01 04:24:00,55.9,55.1,29.77,SSW,193,2.0,5.0,97,0.00,,,0.00,Wunderground v.1.15,2013-11-01 08:24:00,
2013-11-01 04:30:00,55.8,55.0,29.76,South,176,2.0,7.0,97,0.00,,,0.00,Wunderground v.1.15,2013-11-01 08:30:00,
2013-11-01 04:35:00,56.1,55.3,29.76,SSW,197,3.0,7.0,97,0.00,,,0.00,Wunderground v.1.15,2013-11-01 08:35:00,
2013-11-01 04:41:00,56.2,55.4,29.77,ESE,123,3.0,3.0,97,0.00,,,0.00,Wunderground v.1.15,2013-11-01 08:41:00,
2013-11-01 04:47:00,56.6,55.8,29.77,SSW,211,3.0,4.0,97,0.00,,,0.00,Wunderground v.1.15,2013-11-01 08:47:00,
2013-11-01 04:53:00,56.7,55.6,29.76,SSW,211,2.0,2.0,96,0.00,,,0.00,Wunderground v.1.15,2013-11-01 08:53:00,
2013-11-01 04:59:00,56.7,55.6,29.76,WSW,248,1.0,4.0,96,0.00,,,0.00,Wunderground v.1.15,2013-11-01 08:59:00,
2013-11-01 05:05:00,56.9,55.8,29.76,SW,215,2.0,5.0,96,0.00,,,0.00,Wunderground v.1.15,2013-11-01 09:05:00,
2013-11-01 05:11:00,56.9,55.8,29.76,SSW,200,2.0,3.0,96,0.00,,,0.00,Wunderground v.1.15,2013-11-01 09:11:00,
2013-11-01 05:16:00,57.2,56.1,29.77,SSW,208,3.0,6.0,96,0.00,,,0.00,Wunderground v.1.15,2013-11-01 09:16:00,
2013-11-01 05:22:00,57.5,56.1,29.76,ESE,109,3.0,6.0,95,0.00,,,0.00,Wunderground v.1.15,2013-11-01 09:22:00,
2013-11-01 05:28:00,57.4,56.0,29.77,SW,226,2.0,6.0,95,0.00,,,0.00,Wunderground v.1.15,2013-11-01 09:28:00,
2013-11-01 05:34:00,57.2,56.1,29.77,SW,217,2.0,2.0,96,0.00,,,0.00,Wunderground v.1.15,2013-11-01 09:34:00,
2013-11-01 05:39:00,57.0,55.9,29.77,SSW,210,1.0,4.0,96,0.00,,,0.00,Wunderground v.1.15,2013-11-01 09:39:00,
2013-11-01 05:45:00,57.1,56.0,29.77,East,94,3.0,9.0,96,0.00,,,0.00,Wunderground v.1.15,2013-11-01 09:45:00,
2013-11-01 05:51:00,57.1,56.0,29.78,SW,231,3.0,3.0,96,0.00,,,0.00,Wunderground v.1.15,2013-11-01 09:51:00,
2013-11-01 05:57:00,57.1,56.0,29.78,ESE,117,2.0,3.0,96,0.00,,,0.00,Wunderground v.1.15,2013-11-01 09:57:00,
2013-11-01 06:03:00,56.9,56.1,29.77,SE,134,2.0,3.0,97,0.00,,,0.00,Wunderground v.1.15,2013-11-01 10:03:00,
2013-11-01 06:09:00,56.8,56.0,29.78,SSW,205,2.0,3.0,97,0.00,,,0.00,Wunderground v.1.15,2013-11-01 10:09:00,
2013-11-01 06:15:00,56.8,56.0,29.78,South,188,2.0,6.0,97,0.00,,,0.00,Wunderground v.1.15,2013-11-01 10:15:00,
2013-11-01 06:20:00,56.8,56.0,29.78,WSW,245,2.0,3.0,97,0.00,,,0.00,Wunderground v.1.15,2013-11-01 10:20:00,
2013-11-01 06:26:00,56.8,56.0,29.78,SSW,210,1.0,3.0,97,0.00,,,0.00,Wunderground v.1.15,2013-11-01 10:26:00,
2013-11-01 06:32:00,56.7,55.9,29.79,SSW,213,1.0,2.0,97,0.00,,,0.00,Wunderground v.1.15,2013-11-01 10:32:00,
2013-11-01 06:38:00,56.6,55.8,29.79,ESE,123,1.0,2.0,97,0.00,,,0.00,Wunderground v.1.15,2013-11-01 10:38:00,
2013-11-01 06:43:00,56.6,55.8,29.79,SW,226,0.0,2.0,97,0.00,,,0.00,Wunderground v.1.15,2013-11-01 10:43:00,
2013-11-01 06:49:00,56.6,56.0,29.79,SW,224,0.0,3.0,98,0.00,,,0.00,Wunderground v.1.15,2013-11-01 10:49:00,
2013-11-01 06:55:00,56.5,55.9,29.80,SW,217,1.0,2.0,98,0.00,,,0.00,Wunderground v.1.15,2013-11-01 10:55:00,
2013-11-01 07:01:00,56.5,55.9,29.81,SW,222,0.0,2.0,98,0.00,,,0.00,Wunderground v.1.15,2013-11-01 11:01:00,
2013-11-01 07:07:00,56.5,55.9,29.81,SW,222,0.0,2.0,98,0.00,,,0.00,Wunderground v.1.15,2013-11-01 11:07:00,
2013-11-01 07:13:00,56.5,55.9,29.80,East,86,0.0,2.0,98,0.00,,,0.00,Wunderground v.1.15,2013-11-01 11:13:00,
2013-11-01 07:19:00,56.3,55.7,29.80,NNE,29,0.0,2.0,98,0.00,,,0.00,Wunderground v.1.15,2013-11-01 11:19:00,
2013-11-01 07:24:00,56.3,55.7,29.81,NNE,29,0.0,2.0,98,0.00,,,0.00,Wunderground v.1.15,2013-11-01 11:24:00,
2013-11-01 07:30:00,56.2,55.6,29.81,NNE,29,0.0,2.0,98,0.00,,,0.00,Wunderground v.1.15,2013-11-01 11:30:00,
2013-11-01 07:36:00,56.2,55.6,29.81,NNE,29,0.0,2.0,98,0.00,,,0.00,Wunderground v.1.15,2013-11-01 11:36:00,
2013-11-01 07:42:00,56.2,55.6,29.81,NNE,28,0.0,2.0,98,0.00,,,0.00,Wunderground v.1.15,2013-11-01 11:42:00,
2013-11-01 07:47:00,56.2,55.6,29.81,NNE,29,0.0,2.0,98,0.00,,,0.00,Wunderground v.1.15,2013-11-01 11:47:00,
2013-11-01 07:53:00,56.2,55.6,29.81,SE,143,0.0,3.0,98,0.00,,,0.00,Wunderground v.1.15,2013-11-01 11:53:00,
2013-11-01 07:59:00,56.2,55.6,29.81,SSW,213,0.0,3.0,98,0.00,,,0.00,Wunderground v.1.15,2013-11-01 11:59:00,
2013-11-01 08:05:00,56.2,55.6,29.81,SSW,207,1.0,2.0,98,0.00,,,0.00,Wunderground v.1.15,2013-11-01 12:05:00,
2013-11-01 08:11:00,56.2,55.6,29.81,SW,215,0.0,2.0,98,0.00,,,0.00,Wunderground v.1.15,2013-11-01 12:11:00,
2013-11-01 08:17:00,56.1,55.5,29.81,SE,143,0.0,2.0,98,0.00,,,0.00,Wunderground v.1.15,2013-11-01 12:17:00,
2013-11-01 08:23:00,56.0,55.4,29.81,SW,223,0.0,2.0,98,0.00,,,0.00,Wunderground v.1.15,2013-11-01 12:23:00,
2013-11-01 08:28:00,55.9,55.3,29.82,South,191,1.0,2.0,98,0.00,,,0.00,Wunderground v.1.15,2013-11-01 12:28:00,
2013-11-01 08:34:00,55.8,55.2,29.83,SW,219,1.0,2.0,98,0.00,,,0.00,Wunderground v.1.15,2013-11-01 12:34:00,
2013-11-01 08:40:00,55.7,55.1,29.83,SW,217,1.0,1.0,98,0.00,,,0.00,Wunderground v.1.15,2013-11-01 12:40:00,
2013-11-01 08:46:00,55.6,55.0,29.83,SSW,203,1.0,5.0,98,0.00,,,0.00,Wunderground v.1.15,2013-11-01 12:46:00,
2013-11-01 08:51:00,55.4,54.8,29.83,SW,222,1.0,2.0,98,0.00,,,0.00,Wunderground v.1.15,2013-11-01 12:51:00,
2013-11-01 08:57:00,55.3,54.7,29.83,SW,231,1.0,2.0,98,0.00,,,0.00,Wunderground v.1.15,2013-11-01 12:57:00,
2013-11-01 09:03:00,55.0,54.4,29.84,SSW,210,1.0,3.0,98,0.00,,,0.00,Wunderground v.1.15,2013-11-01 13:03:00,
2013-11-01 09:09:00,54.8,54.0,29.84,SE,127,2.0,4.0,97,0.00,,,0.00,Wunderground v.1.15,2013-11-01 13:09:00,
2013-11-01 09:15:00,54.7,53.9,29.85,SSW,195,2.0,4.0,97,0.00,,,0.00,Wunderground v.1.15,2013-11-01 13:15:00,
2013-11-01 09:21:00,54.5,53.7,29.84,SSW,204,2.0,4.0,97,0.00,,,0.00,Wunderground v.1.15,2013-11-01 13:21:00,
2013-11-01 09:27:00,54.1,52.1,29.84,SW,215,2.0,4.0,93,0.00,,,0.00,Wunderground v.1.15,2013-11-01 13:27:00,
2013-11-01 09:32:00,54.2,51.6,29.84,SE,142,2.0,2.0,91,0.00,,,0.00,Wunderground v.1.15,2013-11-01 13:32:00,
2013-11-01 09:38:00,54.9,53.2,29.83,NNE,20,1.0,2.0,94,0.00,,,0.00,Wunderground v.1.15,2013-11-01 13:38:00,
2013-11-01 09:44:00,55.3,51.5,29.84,SW,233,0.0,2.0,87,0.00,,,0.00,Wunderground v.1.15,2013-11-01 13:44:00,
2013-11-01 09:50:00,55.9,52.7,29.84,SW,233,0.0,2.0,89,0.00,,,0.00,Wunderground v.1.15,2013-11-01 13:50:00,
2013-11-01 09:56:00,56.4,51.0,29.83,SSW,204,0.0,2.0,82,0.00,,,0.00,Wunderground v.1.15,2013-11-01 13:56:00,
2013-11-01 10:02:00,57.4,53.9,29.84,SSW,201,0.0,2.0,88,0.00,,,0.00,Wunderground v.1.15,2013-11-01 14:02:00,
2013-11-01 10:08:00,57.9,52.1,29.84,South,176,0.0,2.0,81,0.00,,,0.00,Wunderground v.1.15,2013-11-01 14:08:00,
2013-11-01 10:14:00,58.9,54.4,29.84,East,93,0.0,2.0,85,0.00,,,0.00,Wunderground v.1.15,2013-11-01 14:14:00,
2013-11-01 10:19:00,58.8,51.6,29.83,East,94,1.0,4.0,77,0.00,,,0.00,Wunderground v.1.15,2013-11-01 14:19:00,
2013-11-01 10:25:00,58.7,49.3,29.83,SE,127,1.0,2.0,71,0.00,,,0.00,Wunderground v.1.15,2013-11-01 14:25:00,
2013-11-01 10:31:00,58.9,49.9,29.83,NE,56,1.0,2.0,72,0.00,,,0.00,Wunderground v.1.15,2013-11-01 14:31:00,
2013-11-01 10:37:00,59.2,50.2,29.83,ESE,122,1.0,3.0,72,0.00,,,0.00,Wunderground v.1.15,2013-11-01 14:37:00,
2013-11-01 10:42:00,59.5,48.5,29.83,ESE,108,1.0,2.0,67,0.00,,,0.00,Wunderground v.1.15,2013-11-01 14:42:00,
2013-11-01 10:48:00,60.0,50.6,29.83,South,188,1.0,3.0,71,0.00,,,0.00,Wunderground v.1.15,2013-11-01 14:48:00,
2013-11-01 10:53:00,60.8,48.1,29.82,ENE,70,1.0,5.0,63,0.00,,,0.00,Wunderground v.1.15,2013-11-01 14:53:00,
2013-11-01 10:58:00,60.9,47.8,29.82,ESE,107,1.0,5.0,62,0.00,,,0.00,Wunderground v.1.15,2013-11-01 14:58:00,
2013-11-01 11:02:00,61.2,46.8,29.82,ESE,113,2.0,3.0,59,0.00,,,0.00,Wunderground v.1.15,2013-11-01 15:02:00,
2013-11-01 11:08:00,61.4,45.6,29.82,SSW,207,2.0,3.0,56,0.00,,,0.00,Wunderground v.1.15,2013-11-01 15:08:00,
2013-11-01 11:14:00,61.8,46.9,29.82,NE,45,1.0,6.0,58,0.00,,,0.00,Wunderground v.1.15,2013-11-01 15:14:00,
2013-11-01 11:20:00,61.9,47.9,29.82,ESE,115,1.0,1.0,60,0.00,,,0.00,Wunderground v.1.15,2013-11-01 15:20:00,
2013-11-01 11:25:00,62.3,46.4,29.82,ESE,120,2.0,3.0,56,0.00,,,0.00,Wunderground v.1.15,2013-11-01 15:25:00,
2013-11-01 11:31:00,62.6,48.1,29.82,NE,52,2.0,2.0,59,0.00,,,0.00,Wunderground v.1.15,2013-11-01 15:31:00,
2013-11-01 11:37:00,62.4,46.0,29.82,WSW,253,2.0,4.0,55,0.00,,,0.00,Wunderground v.1.15,2013-11-01 15:37:00,
2013-11-01 11:43:00,62.6,47.1,29.82,ENE,61,3.0,3.0,57,0.00,,,0.00,Wunderground v.1.15,2013-11-01 15:43:00,
2013-11-01 11:49:00,63.0,45.6,29.82,SW,228,2.0,5.0,53,0.00,,,0.00,Wunderground v.1.15,2013-11-01 15:49:00,
2013-11-01 11:54:00,63.5,45.6,29.82,SSE,153,2.0,3.0,52,0.00,,,0.00,Wunderground v.1.15,2013-11-01 15:54:00,
2013-11-01 12:00:00,63.7,48.6,29.81,SE,129,1.0,2.0,58,0.00,,,0.00,Wunderground v.1.15,2013-11-01 16:00:00,
2013-11-01 12:06:00,63.9,45.4,29.81,WSW,243,1.0,4.0,51,0.00,,,0.00,Wunderground v.1.15,2013-11-01 16:06:00,
2013-11-01 12:12:00,63.5,44.5,29.81,ESE,107,3.0,3.0,50,0.00,,,0.00,Wunderground v.1.15,2013-11-01 16:12:00,
2013-11-01 12:17:00,63.8,44.3,29.81,SW,215,3.0,4.0,49,0.00,,,0.00,Wunderground v.1.15,2013-11-01 16:17:00,
2013-11-01 12:23:00,64.6,43.9,29.81,SW,233,2.0,3.0,47,0.00,,,0.00,Wunderground v.1.15,2013-11-01 16:23:00,
2013-11-01 12:29:00,64.6,44.5,29.81,ESE,120,1.0,7.0,48,0.00,,,0.00,Wunderground v.1.15,2013-11-01 16:29:00,
2013-11-01 12:35:00,64.7,42.9,29.80,SSW,202,2.0,4.0,45,0.00,,,0.00,Wunderground v.1.15,2013-11-01 16:35:00,
2013-11-01 12:40:00,65.2,47.1,29.80,SSW,203,2.0,2.0,52,0.00,,,0.00,Wunderground v.1.15,2013-11-01 16:40:00,
2013-11-01 12:46:00,66.0,44.0,29.79,NE,56,1.0,4.0,45,0.00,,,0.00,Wunderground v.1.15,2013-11-01 16:46:00,
2013-11-01 12:52:00,65.9,44.5,29.80,NNE,33,1.0,2.0,46,0.00,,,0.00,Wunderground v.1.15,2013-11-01 16:52:00,
2013-11-01 12:58:00,65.6,47.0,29.79,NNE,27,1.0,3.0,51,0.00,,,0.00,Wunderground v.1.15,2013-11-01 16:58:00,
2013-11-01 13:03:00,66.3,46.0,29.79,WNW,301,1.0,2.0,48,0.00,,,0.00,Wunderground v.1.15,2013-11-01 17:03:00,
2013-11-01 13:09:00,66.9,43.0,29.79,NE,41,1.0,3.0,42,0.00,,,0.00,Wunderground v.1.15,2013-11-01 17:09:00,
2013-11-01 13:15:00,65.9,42.8,29.78,ESE,122,2.0,3.0,43,0.00,,,0.00,Wunderground v.1.15,2013-11-01 17:15:00,
2013-11-01 13:21:00,66.2,45.4,29.77,ENE,58,1.0,2.0,47,0.00,,,0.00,Wunderground v.1.15,2013-11-01 17:21:00,
2013-11-01 13:26:00,66.2,43.6,29.77,NE,48,1.0,2.0,44,0.00,,,0.00,Wunderground v.1.15,2013-11-01 17:26:00,
2013-11-01 13:32:00,66.7,45.3,29.77,East,81,1.0,2.0,46,0.00,,,0.00,Wunderground v.1.15,2013-11-01 17:32:00,
2013-11-01 13:38:00,66.8,43.0,29.77,NNE,15,1.0,3.0,42,0.00,,,0.00,Wunderground v.1.15,2013-11-01 17:38:00,
2013-11-01 13:44:00,66.9,44.3,29.77,East,91,2.0,6.0,44,0.00,,,0.00,Wunderground v.1.15,2013-11-01 17:44:00,
2013-11-01 13:50:00,66.3,45.5,29.76,SSW,210,2.0,2.0,47,0.00,,,0.00,Wunderground v.1.15,2013-11-01 17:50:00,
2013-11-01 13:56:00,66.7,42.2,29.76,NW,318,2.0,3.0,41,0.00,,,0.00,Wunderground v.1.15,2013-11-01 17:56:00,
2013-11-01 14:02:00,67.7,41.8,29.76,ENE,67,2.0,3.0,39,0.00,,,0.00,Wunderground v.1.15,2013-11-01 18:02:00,
2013-11-01 14:07:00,67.8,44.5,29.75,SSE,159,2.0,4.0,43,0.00,,,0.00,Wunderground v.1.15,2013-11-01 18:07:00,
2013-11-01 14:13:00,68.3,42.4,29.75,NNW,334,2.0,2.0,39,0.00,,,0.00,Wunderground v.1.15,2013-11-01 18:13:00,
2013-11-01 14:19:00,68.1,44.1,29.76,East,91,2.0,4.0,42,0.00,,,0.00,Wunderground v.1.15,2013-11-01 18:19:00,
2013-11-01 14:25:00,68.3,42.4,29.75,ESE,114,2.0,3.0,39,0.00,,,0.00,Wunderground v.1.15,2013-11-01 18:25:00,
2013-11-01 14:31:00,68.3,41.0,29.75,NE,56,2.0,2.0,37,0.00,,,0.00,Wunderground v.1.15,2013-11-01 18:31:00,
2013-11-01 14:37:00,68.3,42.4,29.75,NW,319,1.0,2.0,39,0.00,,,0.00,Wunderground v.1.15,2013-11-01 18:37:00,
2013-11-01 14:43:00,68.6,44.6,29.75,West,271,1.0,2.0,42,0.00,,,0.00,Wunderground v.1.15,2013-11-01 18:43:00,
2013-11-01 14:49:00,68.7,42.7,29.75,ENE,77,1.0,2.0,39,0.00,,,0.00,Wunderground v.1.15,2013-11-01 18:49:00,
2013-11-01 14:54:00,68.5,42.6,29.74,East,93,1.0,2.0,39,0.00,,,0.00,Wunderground v.1.15,2013-11-01 18:54:00,
2013-11-01 15:00:00,68.4,38.9,29.74,SSW,199,2.0,2.0,34,0.00,,,0.00,Wunderground v.1.15,2013-11-01 19:00:00,
2013-11-01 15:06:00,68.5,39.8,29.74,SSW,207,2.0,2.0,35,0.00,,,0.00,Wunderground v.1.15,2013-11-01 19:06:00,
2013-11-01 15:12:00,68.7,42.1,29.74,NNE,32,1.0,2.0,38,0.00,,,0.00,Wunderground v.1.15,2013-11-01 19:12:00,
2013-11-01 15:16:00,68.8,39.3,29.74,SW,217,1.0,2.0,34,0.00,,,0.00,Wunderground v.1.15,2013-11-01 19:16:00,
2013-11-01 15:21:00,68.3,41.0,29.73,NW,305,1.0,2.0,37,0.00,,,0.00,Wunderground v.1.15,2013-11-01 19:21:00,
2013-11-01 15:27:00,67.8,39.9,29.73,SE,124,2.0,4.0,36,0.00,,,0.00,Wunderground v.1.15,2013-11-01 19:27:00,
2013-11-01 15:33:00,67.7,40.5,29.73,North,1,2.0,4.0,37,0.00,,,0.00,Wunderground v.1.15,2013-11-01 19:33:00,
2013-11-01 15:39:00,67.4,40.2,29.73,SE,140,1.0,4.0,37,0.00,,,0.00,Wunderground v.1.15,2013-11-01 19:39:00,
2013-11-01 15:44:00,67.9,38.5,29.73,NNW,329,1.0,2.0,34,0.00,,,0.00,Wunderground v.1.15,2013-11-01 19:44:00,
2013-11-01 15:50:00,67.4,40.2,29.72,ENE,68,1.0,1.0,37,0.00,,,0.00,Wunderground v.1.15,2013-11-01 19:50:00,
2013-11-01 15:56:00,67.3,37.2,29.72,WNW,288,1.0,2.0,33,0.00,,,0.00,Wunderground v.1.15,2013-11-01 19:56:00,
2013-11-01 16:01:00,67.2,39.3,29.72,South,173,1.0,2.0,36,0.00,,,0.00,Wunderground v.1.15,2013-11-01 20:01:00,
2013-11-01 16:07:00,67.0,36.1,29.72,SW,221,1.0,3.0,32,0.00,,,0.00,Wunderground v.1.15,2013-11-01 20:07:00,
2013-11-01 16:13:00,66.6,36.6,29.71,SW,220,1.0,4.0,33,0.00,,,0.00,Wunderground v.1.15,2013-11-01 20:13:00,
2013-11-01 16:19:00,65.8,38.1,29.71,East,96,2.0,4.0,36,0.00,,,0.00,Wunderground v.1.15,2013-11-01 20:19:00,
2013-11-01 16:25:00,64.7,35.7,29.71,SSW,205,1.0,3.0,34,0.00,,,0.00,Wunderground v.1.15,2013-11-01 20:25:00,
2013-11-01 16:31:00,64.3,36.8,29.71,North,7,2.0,2.0,36,0.00,,,0.00,Wunderground v.1.15,2013-11-01 20:31:00,
2013-11-01 16:37:00,63.6,37.5,29.71,WNW,301,1.0,2.0,38,0.00,,,0.00,Wunderground v.1.15,2013-11-01 20:37:00,
2013-11-01 16:43:00,63.2,37.2,29.71,ESE,103,1.0,2.0,38,0.00,,,0.00,Wunderground v.1.15,2013-11-01 20:43:00,
2013-11-01 16:48:00,62.9,38.2,29.72,SSW,203,1.0,3.0,40,0.00,,,0.00,Wunderground v.1.15,2013-11-01 20:48:00,
2013-11-01 16:54:00,62.6,38.6,29.72,ESE,113,2.0,5.0,41,0.00,,,0.00,Wunderground v.1.15,2013-11-01 20:54:00,
2013-11-01 17:00:00,62.6,39.2,29.72,SE,124,2.0,2.0,42,0.00,,,0.00,Wunderground v.1.15,2013-11-01 21:00:00,
2013-11-01 17:06:00,62.3,40.1,29.72,ESE,115,1.0,2.0,44,0.00,,,0.00,Wunderground v.1.15,2013-11-01 21:06:00,
2013-11-01 17:11:00,62.1,39.9,29.72,SW,224,1.0,2.0,44,0.00,,,0.00,Wunderground v.1.15,2013-11-01 21:11:00,
2013-11-01 17:17:00,61.8,39.1,29.72,SSE,150,0.0,2.0,43,0.00,,,0.00,Wunderground v.1.15,2013-11-01 21:17:00,
2013-11-01 17:22:00,61.7,39.0,29.72,SW,224,0.0,2.0,43,0.00,,,0.00,Wunderground v.1.15,2013-11-01 21:22:00,
2013-11-01 17:28:00,61.4,38.7,29.73,SW,224,0.0,2.0,43,0.00,,,0.00,Wunderground v.1.15,2013-11-01 21:28:00,
2013-11-01 17:34:00,61.1,40.7,29.73,WNW,293,0.0,2.0,47,0.00,,,0.00,Wunderground v.1.15,2013-11-01 21:34:00,
2013-11-01 17:40:00,60.9,41.6,29.73,ESE,103,0.0,2.0,49,0.00,,,0.00,Wunderground v.1.15,2013-11-01 21:40:00,
2013-11-01 17:45:00,60.4,42.2,29.73,NNE,15,0.0,2.0,51,0.00,,,0.00,Wunderground v.1.15,2013-11-01 21:45:00,
2013-11-01 17:50:00,60.1,44.8,29.73,North,353,0.0,2.0,57,0.00,,,0.00,Wunderground v.1.15,2013-11-01 21:50:00,
2013-11-01 17:56:00,59.7,47.5,29.73,North,1,0.0,2.0,64,0.00,,,0.00,Wunderground v.1.15,2013-11-01 21:56:00,
2013-11-01 18:01:00,59.4,49.2,29.73,North,1,0.0,2.0,69,0.00,,,0.00,Wunderground v.1.15,2013-11-01 22:01:00,
2013-11-01 18:07:00,58.8,49.4,29.73,NNW,342,0.0,2.0,71,0.00,,,0.00,Wunderground v.1.15,2013-11-01 22:07:00,
2013-11-01 18:13:00,58.3,48.9,29.73,NNW,343,0.0,2.0,71,0.00,,,0.00,Wunderground v.1.15,2013-11-01 22:13:00,
2013-11-01 18:19:00,57.9,48.9,29.73,NNW,338,0.0,2.0,72,0.00,,,0.00,Wunderground v.1.15,2013-11-01 22:19:00,
2013-11-01 18:24:00,57.4,48.4,29.73,WSW,256,0.0,2.0,72,0.00,,,0.00,Wunderground v.1.15,2013-11-01 22:24:00,
2013-11-01 18:30:00,57.1,47.8,29.74,WSW,256,0.0,2.0,71,0.00,,,0.00,Wunderground v.1.15,2013-11-01 22:30:00,
2013-11-01 18:36:00,56.7,46.6,29.74,NNE,22,0.0,2.0,69,0.00,,,0.00,Wunderground v.1.15,2013-11-01 22:36:00,
2013-11-01 18:42:00,56.1,46.1,29.74,WNW,293,0.0,2.0,69,0.00,,,0.00,Wunderground v.1.15,2013-11-01 22:42:00,
2013-11-01 18:48:00,55.5,45.1,29.74,North,10,0.0,3.0,68,0.00,,,0.00,Wunderground v.1.15,2013-11-01 22:48:00,
2013-11-01 18:54:00,55.2,45.2,29.74,NE,39,1.0,2.0,69,0.00,,,0.00,Wunderground v.1.15,2013-11-01 22:54:00,
2013-11-01 19:00:00,54.9,45.3,29.74,NNE,23,1.0,1.0,70,0.00,,,0.00,Wunderground v.1.15,2013-11-01 23:00:00,
2013-11-01 19:05:00,54.4,45.2,29.74,NNW,338,1.0,2.0,71,0.00,,,0.00,Wunderground v.1.15,2013-11-01 23:05:00,
2013-11-01 19:11:00,54.2,44.6,29.75,NE,34,1.0,2.0,70,0.00,,,0.00,Wunderground v.1.15,2013-11-01 23:11:00,
2013-11-01 19:17:00,53.9,44.7,29.75,North,360,1.0,2.0,71,0.00,,,0.00,Wunderground v.1.15,2013-11-01 23:17:00,
2013-11-01 19:23:00,53.5,44.3,29.75,NNW,331,1.0,2.0,71,0.00,,,0.00,Wunderground v.1.15,2013-11-01 23:23:00,
2013-11-01 19:28:00,53.3,44.1,29.75,North,4,0.0,2.0,71,0.00,,,0.00,Wunderground v.1.15,2013-11-01 23:28:00,
2013-11-01 19:34:00,53.1,44.3,29.76,North,5,0.0,2.0,72,0.00,,,0.00,Wunderground v.1.15,2013-11-01 23:34:00,
2013-11-01 19:40:00,52.7,44.3,29.76,North,11,0.0,2.0,73,0.00,,,0.00,Wunderground v.1.15,2013-11-01 23:40:00,
2013-11-01 19:46:00,52.5,44.4,29.76,ENE,62,0.0,2.0,74,0.00,,,0.00,Wunderground v.1.15,2013-11-01 23:46:00,
2013-11-01 19:52:00,52.4,45.1,29.77,NE,39,1.0,2.0,76,0.00,,,0.00,Wunderground v.1.15,2013-11-01 23:52:00,
2013-11-01 19:58:00,52.2,45.2,29.77,NNE,28,1.0,4.0,77,0.00,,,0.00,Wunderground v.1.15,2013-11-01 23:58:00,
2013-11-01 20:04:00,51.8,44.5,29.77,NE,47,0.0,2.0,76,0.00,,,0.00,Wunderground v.1.15,2013-11-02 00:04:00,
2013-11-01 20:10:00,51.6,44.6,29.77,North,352,0.0,2.0,77,0.00,,,0.00,Wunderground v.1.15,2013-11-02 00:10:00,
2013-11-01 20:16:00,51.4,44.8,29.77,NE,46,0.0,2.0,78,0.00,,,0.00,Wunderground v.1.15,2013-11-02 00:16:00,
2013-11-01 20:21:00,51.1,44.5,29.77,NE,43,0.0,2.0,78,0.00,,,0.00,Wunderground v.1.15,2013-11-02 00:21:00,
2013-11-01 20:27:00,50.8,44.5,29.78,NE,46,0.0,2.0,79,0.00,,,0.00,Wunderground v.1.15,2013-11-02 00:27:00,
2013-11-01 20:33:00,50.5,44.6,29.78,NNE,29,0.0,2.0,80,0.00,,,0.00,Wunderground v.1.15,2013-11-02 00:33:00,
2013-11-01 20:39:00,50.2,44.3,29.78,NNW,329,0.0,2.0,80,0.00,,,0.00,Wunderground v.1.15,2013-11-02 00:39:00,
2013-11-01 20:45:00,49.9,44.3,29.78,ENE,60,0.0,2.0,81,0.00,,,0.00,Wunderground v.1.15,2013-11-02 00:45:00,
2013-11-01 20:51:00,49.7,44.1,29.78,NE,51,0.0,2.0,81,0.00,,,0.00,Wunderground v.1.15,2013-11-02 00:51:00,
2013-11-01 20:57:00,49.5,44.2,29.78,NE,44,0.0,2.0,82,0.00,,,0.00,Wunderground v.1.15,2013-11-02 00:57:00,
2013-11-01 21:02:00,49.4,44.1,29.78,NE,44,0.0,2.0,82,0.00,,,0.00,Wunderground v.1.15,2013-11-02 01:02:00,
2013-11-01 21:08:00,49.3,44.0,29.78,NE,40,0.0,2.0,82,0.00,,,0.00,Wunderground v.1.15,2013-11-02 01:08:00,
2013-11-01 21:14:00,49.3,44.0,29.78,NW,323,0.0,2.0,82,0.00,,,0.00,Wunderground v.1.15,2013-11-02 01:14:00,
2013-11-01 21:20:00,49.3,43.7,29.78,NNE,27,0.0,2.0,81,0.00,,,0.00,Wunderground v.1.15,2013-11-02 01:20:00,
2013-11-01 21:24:00,49.4,43.8,29.78,NNE,29,0.0,2.0,81,0.00,,,0.00,Wunderground v.1.15,2013-11-02 01:24:00,
2013-11-01 21:30:00,49.4,43.5,29.79,NNE,13,0.0,2.0,80,0.00,,,0.00,Wunderground v.1.15,2013-11-02 01:30:00,
2013-11-01 21:36:00,49.2,43.3,29.79,North,6,0.0,2.0,80,0.00,,,0.00,Wunderground v.1.15,2013-11-02 01:36:00,
2013-11-01 21:42:00,49.2,43.0,29.79,North,6,0.0,2.0,79,0.00,,,0.00,Wunderground v.1.15,2013-11-02 01:42:00,
2013-11-01 21:47:00,49.3,42.7,29.79,NW,307,0.0,2.0,78,0.00,,,0.00,Wunderground v.1.15,2013-11-02 01:47:00,
2013-11-01 21:53:00,49.2,42.6,29.79,NW,305,0.0,2.0,78,0.00,,,0.00,Wunderground v.1.15,2013-11-02 01:53:00,
2013-11-01 21:59:00,49.1,42.5,29.79,NW,305,0.0,2.0,78,0.00,,,0.00,Wunderground v.1.15,2013-11-02 01:59:00,
2013-11-01 22:04:00,49.1,42.2,29.79,NE,37,0.0,2.0,77,0.00,,,0.00,Wunderground v.1.15,2013-11-02 02:04:00,
2013-11-01 22:10:00,49.0,41.8,29.79,NNE,23,0.0,2.0,76,0.00,,,0.00,Wunderground v.1.15,2013-11-02 02:10:00,
2013-11-01 22:16:00,48.8,41.6,29.80,WNW,300,0.0,2.0,76,0.00,,,0.00,Wunderground v.1.15,2013-11-02 02:16:00,
2013-11-01 22:22:00,48.9,41.7,29.80,North,352,0.0,2.0,76,0.00,,,0.00,Wunderground v.1.15,2013-11-02 02:22:00,
2013-11-01 22:27:00,48.8,41.6,29.80,NW,316,0.0,2.0,76,0.00,,,0.00,Wunderground v.1.15,2013-11-02 02:27:00,
2013-11-01 22:33:00,48.7,41.5,29.80,WNW,288,0.0,2.0,76,0.00,,,0.00,Wunderground v.1.15,2013-11-02 02:33:00,
2013-11-01 22:39:00,48.7,41.5,29.80,NNE,13,0.0,2.0,76,0.00,,,0.00,Wunderground v.1.15,2013-11-02 02:39:00,
2013-11-01 22:45:00,48.8,41.6,29.81,North,349,0.0,2.0,76,0.00,,,0.00,Wunderground v.1.15,2013-11-02 02:45:00,
2013-11-01 22:50:00,48.7,41.8,29.81,WNW,302,0.0,2.0,77,0.00,,,0.00,Wunderground v.1.15,2013-11-02 02:50:00,
2013-11-01 22:56:00,48.5,42.3,29.81,North,352,0.0,2.0,79,0.00,,,0.00,Wunderground v.1.15,2013-11-02 02:56:00,
2013-11-01 23:02:00,48.8,42.2,29.81,North,356,1.0,2.0,78,0.00,,,0.00,Wunderground v.1.15,2013-11-02 03:02:00,
2013-11-01 23:08:00,48.8,42.2,29.81,NNE,22,1.0,2.0,78,0.00,,,0.00,Wunderground v.1.15,2013-11-02 03:08:00,
2013-11-01 23:13:00,48.5,42.0,29.81,North,352,0.0,2.0,78,0.00,,,0.00,Wunderground v.1.15,2013-11-02 03:13:00,
2013-11-01 23:19:00,48.5,41.6,29.81,NE,49,1.0,2.0,77,0.00,,,0.00,Wunderground v.1.15,2013-11-02 03:19:00,
2013-11-01 23:25:00,48.4,41.5,29.81,North,358,1.0,2.0,77,0.00,,,0.00,Wunderground v.1.15,2013-11-02 03:25:00,
2013-11-01 23:31:00,48.2,41.0,29.82,North,5,0.0,2.0,76,0.00,,,0.00,Wunderground v.1.15,2013-11-02 03:31:00,
2013-11-01 23:36:00,47.9,40.7,29.82,NNW,346,0.0,2.0,76,0.00,,,0.00,Wunderground v.1.15,2013-11-02 03:36:00,
2013-11-01 23:41:00,47.9,40.7,29.82,SSW,205,0.0,2.0,76,0.00,,,0.00,Wunderground v.1.15,2013-11-02 03:41:00,
2013-11-01 23:47:00,47.7,40.2,29.82,North,11,0.0,2.0,75,0.00,,,0.00,Wunderground v.1.15,2013-11-02 03:47:00,
2013-11-01 23:53:00,47.8,40.3,29.82,NW,318,0.0,2.0,75,0.00,,,0.00,Wunderground v.1.15,2013-11-02 03:53:00,
2013-11-01 23:59:00,47.6,40.4,29.82,NNE,12,1.0,2.0,76,0.00,,,0.00,Wunderground v.1.15,2013-11-02 03:59:00,